Theta_e
340 339 337 339 341 341 340 340 339 339 339 340 338 338 338 336 335 334 334 334 334 333 332 330 331 333 333 334 334 332 332 333 333 334 333 334 335 336 336 336 335 335 335 334 331 329 329 329 328 329 329 329 329 326 325 329 331 329 328 326 325 326 324 325 326 325 324 323 322 322 323 323 324 325 325 325 326 328 329 329 330 331 331 331 331
341 341 339 339 341 341 341 341 340 340 341 340 340 339 338 337 337 337 336 337 336 335 335 334 333 332 332 333 334 333 332 332 333 334 334 334 336 336 336 336 336 336 336 335 334 332 329 329 328 328 330 330 329 328 326 328 330 328 328 326 325 325 325 325 326 325 323 323 322 322 322 321 322 325 324 324 325 327 329 329 330 330 331 331 331
341 340 340 340 341 340 340 340 340 340 339 338 338 338 338 338 338 338 338 338 337 337 337 336 335 335 334 333 333 334 334 333 333 335 336 336 336 336 336 335 335 336 336 336 335 334 331 330 329 329 330 331 330 330 328 328 328 327 327 327 325 325 325 325 326 325 324 323 323 323 323 322 322 324 324 324 325 326 328 329 329 330 330 330 330
340 340 338 339 341 341 341 341 340 340 339 339 340 339 340 340 339 339 339 339 339 339 338 337 336 335 335 335 334 333 334 334 334 334 336 337 336 336 336 336 335 334 335 335 335 335 333 330 329 329 331 332 331 330 329 328 328 327 327 327 326 325 323 324 325 325 324 323 323 323 323 323 323 323 323 323 324 326 327 328 329 329 330 330 330
340 340 340 340 341 342 342 341 340 341 341 341 342 340 341 341 341 340 339 340 340 339 339 339 338 337 336 336 336 335 335 334 334 334 336 337 337 337 337 336 335 333 333 332 333 335 334 332 330 329 331 332 331 331 331 330 329 328 327 327 326 325 324 322 324 325 324 323 323 323 323 323 323 322 321 322 324 325 326 328 328 329 329 329 329
340 340 340 341 341 342 342 342 342 341 342 342 342 341 341 341 341 340 340 340 340 340 339 339 338 338 337 337 337 336 335 335 335 334 336 337 338 337 337 337 336 333 331 330 331 333 334 333 331 328 329 331 332 331 331 331 331 329 329 328 327 326 324 322 323 324 324 324 323 323 324 323 322 323 321 322 324 325 325 327 328 328 328 328 328
341 340 340 340 340 341 341 342 342 341 341 342 341 340 340 340 340 340 339 339 339 339 339 339 339 338 338 339 339 337 337 336 336 335 335 336 337 336 336 336 335 333 332 328 328 330 331 332 333 330 328 330 332 332 332 331 331 330 330 329 327 326 325 323 323 323 324 324 322 323 324 323 322 323 322 322 324 324 325 326 327 328 328 327 327
342 341 341 341 341 341 342 342 341 340 341 341 340 339 339 338 338 338 338 337 338 337 337 337 338 338 337 338 338 338 338 337 338 337 337 337 336 336 335 334 333 333 334 331 328 326 326 327 333 333 330 328 331 333 332 332 332 332 330 329 328 326 326 325 323 322 324 324 322 323 324 322 322 322 322 322 323 323 324 325 326 327 327 327 326
342 342 341 341 341 341 341 341 341 340 341 340 339 339 338 337 337 337 338 337 338 338 337 337 338 337 338 338 338 338 338 338 338 337 338 338 337 336 335 335 333 332 334 334 332 329 327 329 332 334 332 329 329 331 332 332 333 333 331 330 328 327 326 325 322 320 324 324 323 324 323 322 323 323 322 322 322 322 322 323 325 326 327 326 326
343 342 341 341 340 341 341 341 341 341 341 339 339 338 337 337 337 337 337 337 337 338 337 338 338 338 337 338 338 338 338 338 337 337 337 338 338 337 336 336 334 333 332 333 335 334 332 332 333 333 334 331 328 328 331 332 333 334 332 330 329 327 326 326 323 320 323 325 323 323 323 323 323 323 323 323 322 321 321 322 324 325 326 326 326
342 341 341 341 340 340 341 341 342 341 340 339 338 337 337 337 337 337 337 337 338 338 337 337 337 337 336 337 337 337 337 337 338 338 338 338 338 337 336 336 336 335 333 333 335 336 334 334 333 333 333 334 330 327 329 331 332 333 332 331 330 329 327 326 325 322 322 324 324 324 324 324 323 323 324 323 322 321 320 321 323 324 326 325 325
341 341 341 341 340 339 340 340 340 339 338 338 338 337 337 337 337 337 337 337 337 337 337 337 337 336 336 336 337 336 336 337 337 337 338 338 337 337 337 337 337 336 335 333 333 333 334 334 333 333 334 334 332 329 328 329 331 332 332 331 330 329 328 327 326 324 323 324 324 324 324 325 324 324 324 323 323 322 320 321 323 324 325 325 325
340 340 340 340 340 339 338 339 338 337 337 338 337 336 336 336 337 337 337 337 337 337 337 336 337 337 337 336 335 335 335 336 336 337 338 337 337 337 337 337 336 336 335 334 333 333 333 334 333 333 334 334 333 331 328 327 329 330 331 331 329 329 329 327 326 325 325 325 325 324 325 325 325 324 324 323 323 322 320 323 324 324 324 324 324
338 338 338 338 338 337 337 337 337 336 336 337 336 336 335 335 336 337 337 337 336 336 337 336 337 337 337 336 336 335 335 336 337 338 338 336 336 337 336 336 336 336 336 335 334 334 333 334 333 333 334 334 333 332 330 328 328 329 329 330 329 329 329 328 327 325 325 326 325 324 324 325 325 324 324 324 323 322 321 323 324 324 324 324 324
335 335 336 336 336 336 335 335 335 335 335 335 335 335 335 335 335 336 336 336 336 336 335 336 336 336 336 337 337 336 336 338 337 336 336 335 336 335 334 336 337 336 336 335 335 335 334 334 334 333 334 334 333 333 333 332 330 329 328 328 328 328 328 328 328 325 325 326 326 324 324 326 325 325 324 324 324 322 321 322 324 323 323 324 323
333 334 334 334 334 334 334 334 334 334 334 334 334 334 335 334 334 335 335 335 336 336 335 335 335 336 336 336 337 336 338 338 336 334 334 336 336 335 335 335 335 335 334 334 334 335 335 336 335 334 334 334 334 334 333 333 332 330 329 328 328 327 327 328 328 327 326 326 326 325 324 325 325 325 325 324 324 323 323 322 322 322 323 323 322
332 331 332 332 333 332 333 333 333 333 332 333 333 333 333 333 333 334 334 335 335 335 335 335 334 335 335 335 336 337 337 336 335 334 334 335 335 335 335 335 334 333 334 334 334 334 335 336 336 335 334 334 334 334 334 333 333 332 331 330 329 328 327 326 327 327 326 326 326 325 325 325 326 325 324 324 324 323 324 323 322 322 322 323 322
330 329 329 330 330 331 330 330 331 330 330 330 331 330 330 331 331 331 332 332 333 334 335 334 334 334 334 334 335 335 335 334 335 336 334 334 333 334 336 336 334 334 333 334 334 334 335 336 335 334 333 334 334 334 334 333 333 332 332 331 330 329 328 326 326 328 327 326 326 326 326 325 326 325 324 324 324 323 323 323 323 322 322 322 321
328 327 327 328 328 328 327 328 328 327 327 327 328 328 327 328 328 328 329 329 330 332 332 332 332 333 333 333 333 334 334 334 334 335 335 334 333 334 335 335 335 334 334 334 335 335 335 335 335 334 333 333 333 333 333 333 333 332 332 331 331 330 330 327 325 327 327 327 326 326 327 326 326 326 324 323 324 324 324 324 325 323 322 322 321
326 325 325 326 325 325 325 325 325 325 325 325 325 325 325 325 325 326 327 327 328 328 329 329 329 330 330 330 331 332 332 333 334 334 334 335 334 333 334 334 334 334 334 335 334 334 334 334 335 334 334 333 333 334 333 333 333 332 332 332 331 330 330 328 325 325 325 326 327 327 328 328 327 326 325 323 324 325 324 324 324 323 322 322 321
324 323 324 324 323 323 323 323 323 323 322 322 322 323 323 323 323 324 325 325 325 325 326 326 326 327 327 327 328 328 329 330 331 332 332 333 334 333 333 333 333 333 334 334 335 334 334 333 334 334 335 334 333 333 333 333 333 333 332 332 332 331 330 329 327 325 323 323 327 327 328 329 328 327 326 324 324 325 324 324 324 324 323 322 322
322 321 322 322 321 321 321 321 320 320 320 320 320 321 321 321 321 323 323 323 323 323 323 323 323 324 324 324 325 326 326 326 327 328 328 331 332 331 331 332 332 332 332 333 335 336 335 334 334 334 335 335 334 333 333 333 333 333 333 332 332 332 330 330 328 327 323 322 325 327 327 329 328 328 327 325 324 324 324 324 324 324 323 323 323
321 320 320 320 320 319 320 320 319 319 319 319 319 319 319 320 321 321 321 321 320 320 320 321 321 322 322 322 323 323 324 324 324 325 326 327 328 329 329 330 330 330 331 331 332 334 334 334 334 334 334 334 335 334 333 333 333 333 332 332 332 332 331 330 329 328 326 323 323 324 326 328 329 329 328 326 325 325 325 324 325 325 324 323 323
320 319 319 319 319 318 318 318 318 318 317 317 317 317 317 319 319 318 318 318 317 317 318 319 319 319 320 320 320 321 321 322 322 323 324 324 325 326 326 327 327 327 328 329 330 331 331 331 333 334 335 335 335 335 334 334 334 333 332 332 332 332 332 331 330 328 327 325 323 322 323 326 328 329 329 327 326 325 326 325 325 325 324 323 324
319 318 318 318 317 317 317 316 316 316 316 316 316 316 316 317 317 316 316 316 315 315 316 316 317 316 317 317 318 318 319 320 320 321 321 321 322 323 323 324 325 325 325 326 328 329 329 329 330 332 334 335 335 335 335 335 334 333 331 331 331 332 332 332 331 329 328 327 325 323 322 323 326 328 329 329 326 325 325 326 326 326 324 323 324
318 317 317 317 317 316 316 316 316 315 315 315 316 315 316 316 315 315 315 314 314 315 315 315 315 315 315 316 316 317 318 318 318 318 319 319 320 320 321 322 323 323 324 325 326 326 327 328 328 329 331 333 334 334 333 333 334 334 332 331 331 331 332 331 331 331 329 328 326 324 323 322 324 326 329 330 328 325 325 325 326 326 324 323 323
317 316 316 316 316 315 315 315 315 314 314 314 314 315 315 314 314 314 313 313 313 314 314 314 314 314 314 314 315 316 316 317 317 317 317 318 318 319 320 321 321 322 322 323 323 323 324 325 326 328 329 331 332 331 331 331 333 334 334 332 331 331 331 331 332 332 330 329 327 326 324 322 322 324 326 329 329 326 325 325 325 325 324 322 323
316 315 315 315 315 315 314 314 314 314 314 314 314 314 314 313 313 313 311 312 313 313 313 313 313 313 313 313 314 315 315 315 315 315 315 316 317 317 317 318 319 320 320 320 321 321 322 323 323 325 326 327 328 328 329 330 331 333 334 333 332 332 331 331 331 332 331 330 330 328 325 324 323 322 323 326 328 327 325 324 325 325 324 322 323
315 315 314 314 314 314 313 313 313 313 313 313 313 313 312 312 312 311 311 311 312 312 312 313 313 313 313 313 313 314 313 313 313 313 313 313 313 313 313 314 315 316 317 317 317 318 319 320 321 322 323 323 324 324 326 328 329 330 332 333 333 331 331 331 331 331 331 331 331 329 328 326 324 323 322 324 327 327 325 324 325 325 324 323 323
314 314 313 313 313 313 312 312 312 312 312 312 312 311 311 311 311 310 310 310 311 311 311 312 312 312 312 311 312 312 310 310 311 310 311 310 310 309 309 310 311 312 313 314 315 316 317 317 318 318 319 319 320 321 323 325 327 328 330 332 333 331 331 331 331 331 331 331 331 331 330 328 326 324 322 323 326 327 326 325 325 325 324 323 322
313 313 312 312 311 311 310 310 310 310 310 311 311 311 311 311 310 310 309 310 310 310 310 311 311 310 310 310 310 309 309 309 308 308 308 308 307 307 307 307 308 309 310 311 311 312 312 313 314 314 315 316 317 319 319 321 324 326 327 328 330 331 331 330 330 331 331 331 331 331 330 329 327 325 323 322 324 326 326 325 325 324 324 323 322
312 312 311 310 309 309 308 308 307 308 308 309 310 310 310 310 310 309 310 309 309 310 310 309 309 309 309 309 308 308 307 307 306 306 306 305 305 305 305 305 306 306 307 308 308 308 309 310 311 311 312 313 314 315 317 319 322 325 326 327 329 331 330 330 330 330 330 331 331 331 331 330 328 326 324 323 323 325 326 326 325 324 324 323 322
311 311 310 309 308 307 306 306 306 306 306 307 308 309 309 309 309 309 309 309 309 309 309 308 308 308 308 307 307 306 305 305 305 304 304 303 303 303 303 304 304 304 305 306 306 307 307 308 308 309 309 310 312 313 315 317 319 321 325 327 330 331 330 329 330 329 329 330 330 330 331 330 329 327 325 324 323 324 326 326 326 325 324 324 323
310 309 308 308 307 306 305 305 304 304 305 306 307 308 309 309 309 308 308 308 308 307 307 307 307 306 306 306 305 305 304 304 303 303 302 302 302 302 302 303 303 303 304 304 305 305 306 306 306 307 308 309 310 311 313 315 316 318 320 324 328 330 330 330 330 330 329 329 330 330 330 330 330 329 327 325 323 323 324 326 326 325 325 324 323
308 307 307 306 305 305 304 304 303 303 303 304 306 307 308 308 308 307 307 307 307 306 306 306 306 305 305 304 304 304 303 303 302 302 302 301 301 301 301 301 302 302 302 303 303 304 304 305 305 306 307 307 308 309 311 313 315 316 318 321 325 328 330 330 330 330 330 330 329 329 330 330 330 329 327 325 324 322 323 325 326 326 325 324 323
307 306 305 305 304 304 303 303 303 302 302 303 304 306 307 307 307 306 306 306 306 305 305 305 305 304 304 303 303 303 302 302 302 301 301 301 300 300 300 300 301 301 301 302 302 303 303 304 305 305 306 307 308 309 310 311 313 315 317 319 323 326 329 331 330 330 329 329 329 329 329 330 330 330 328 326 325 323 322 323 325 326 325 324 324
307 306 305 304 303 303 302 302 302 302 301 302 303 304 306 306 306 306 306 305 305 304 304 304 304 304 303 303 303 302 302 302 301 301 300 300 300 299 299 299 300 300 301 301 302 302 303 304 304 305 306 307 308 309 309 310 312 313 315 317 319 323 328 330 331 330 329 329 329 329 329 329 329 330 329 327 325 324 323 322 324 326 326 325 324
306 305 305 304 303 302 302 301 301 301 300 300 302 303 304 305 306 305 305 304 304 304 304 303 303 303 302 302 302 302 301 301 300 300 300 299 299 298 298 299 299 300 300 301 302 303 303 304 304 305 306 307 308 308 308 309 310 311 312 314 317 320 322 325 328 330 330 329 329 329 329 329 329 329 329 328 326 325 323 321 323 325 326 326 325
306 305 304 304 303 302 301 300 299 299 300 300 301 303 304 305 306 305 304 303 303 303 303 303 302 302 301 301 301 301 301 300 300 299 299 298 297 297 297 298 299 299 300 301 302 302 303 304 304 305 306 306 306 306 307 307 308 310 311 313 315 315 315 318 323 328 330 330 329 329 329 329 329 329 329 328 326 324 322 322 323 324 326 326 326
305 305 304 304 303 302 301 299 298 299 300 300 301 302 303 304 305 305 304 303 303 303 302 302 301 301 301 301 301 301 300 300 299 299 298 297 296 296 297 298 299 299 300 301 302 302 302 303 303 304 304 304 304 304 305 306 307 308 309 311 312 312 313 315 317 322 328 329 328 329 329 329 329 329 328 328 327 324 321 321 322 323 325 326 326
305 305 304 303 302 302 301 300 298 299 300 300 300 301 302 303 304 305 304 303 302 302 302 301 301 301 300 300 301 301 300 299 298 298 297 296 296 297 298 299 299 299 300 301 302 302 301 301 301 302 302 303 303 303 304 304 305 306 307 309 310 311 311 312 312 315 322 328 328 328 329 328 328 328 327 326 326 324 321 321 322 323 324 325 326
306 305 303 302 301 301 301 299 298 299 300 300 300 301 301 302 303 304 303 302 302 302 301 301 301 300 300 300 300 300 299 299 298 297 297 297 297 298 299 299 300 300 300 301 301 301 300 300 300 300 301 301 301 302 302 303 303 304 305 307 308 308 308 309 311 312 317 325 329 328 328 328 328 327 325 324 324 322 320 320 321 321 322 324 325
306 305 304 303 301 300 299 298 297 298 300 300 301 301 302 302 303 303 303 302 302 301 301 301 300 300 299 300 300 299 299 298 297 298 298 298 298 299 299 299 299 299 299 300 300 299 299 299 298 299 299 300 300 300 301 302 302 303 303 305 305 306 307 308 310 312 315 321 328 329 328 328 327 326 323 322 321 321 321 321 320 320 321 323 324
306 306 305 303 302 300 299 297 296 297 299 300 300 301 301 302 302 303 302 302 302 301 301 301 300 299 299 299 299 299 299 298 297 297 298 299 299 299 299 299 299 299 299 298 298 298 298 298 298 298 298 298 299 299 300 301 301 301 302 303 304 306 307 307 309 311 312 316 322 328 329 328 327 325 323 322 321 321 322 323 321 320 320 321 323
306 305 305 303 302 301 299 296 296 296 298 300 301 301 301 302 302 302 302 302 302 301 301 301 300 299 298 299 299 298 298 297 296 296 298 299 299 299 299 299 299 299 298 298 297 297 297 297 297 297 297 297 298 299 299 300 300 300 301 302 304 306 307 307 307 309 309 311 316 324 329 328 327 325 323 322 322 321 321 322 321 320 319 320 321
305 305 305 303 302 301 299 297 295 296 297 299 300 301 301 302 302 302 302 302 302 301 301 301 300 299 298 298 298 298 298 297 296 296 297 299 299 299 299 299 299 299 298 298 298 298 297 297 297 296 297 297 297 298 298 299 299 300 300 302 304 305 306 307 307 307 308 309 311 318 325 328 327 325 324 323 322 321 321 321 321 320 319 319 320
304 305 305 304 303 301 299 297 295 295 296 298 300 301 301 302 303 303 302 302 302 301 301 301 300 299 298 297 297 297 297 297 296 296 296 298 299 299 299 298 299 299 298 298 298 298 298 297 297 297 297 297 297 297 298 299 299 299 300 302 304 306 306 307 307 308 309 311 313 316 322 326 326 325 324 324 323 322 322 322 321 320 319 319 319
303 304 304 304 303 302 300 298 295 295 296 297 299 300 301 302 303 303 302 302 301 301 301 301 301 299 298 297 296 296 296 296 296 296 296 296 298 298 298 298 298 299 299 299 298 298 298 298 297 297 297 297 297 297 297 298 299 299 301 303 305 306 307 308 310 311 313 315 317 319 323 325 326 326 325 324 323 322 322 322 321 321 320 319 318
303 302 302 302 302 302 301 299 296 295 295 296 297 299 300 301 302 302 302 302 302 301 301 301 301 300 299 298 296 295 295 296 296 297 297 296 296 298 298 298 298 298 299 299 299 299 298 298 298 298 298 297 297 296 297 297 298 299 301 302 304 304 305 308 311 312 315 319 320 322 325 326 326 326 324 323 323 323 323 322 321 321 321 320 319
303 302 301 301 300 300 301 300 298 296 295 295 295 296 298 300 301 301 302 302 302 301 300 300 300 299 299 298 297 295 295 296 296 296 297 297 296 297 297 298 298 298 298 299 299 299 298 298 298 298 298 298 297 297 296 296 298 299 300 301 302 302 303 306 308 309 314 317 317 317 322 326 326 324 323 321 320 319 320 321 321 321 321 320 320
303 302 302 300 300 299 299 299 299 297 296 295 295 295 295 297 298 300 300 300 301 301 300 299 299 299 298 298 297 295 295 296 296 296 297 297 296 297 297 297 298 297 297 298 299 299 298 298 298 298 298 298 298 297 296 296 297 298 299 300 301 301 301 303 304 307 311 313 309 309 317 323 325 323 321 320 318 314 314 316 318 318 319 319 319
Wind_Speed
7 6 8 7 6 5 5 5 4 6 5 4 6 6 7 7 7 8 9 10 12 12 12 12 13 13 13 13 13 14 14 13 14 14 12 11 12 11 11 13 12 11 12 10 10 10 9 11 10 9 10 11 11 11 10 10 8 9 8 7 8 8 9 7 6 4 3 5 5 6 8 9 9 8 9 9 7 7 8 8 9 10 10 10 10
7 7 8 6 5 7 7 5 5 6 5 6 8 8 8 7 8 8 9 11 13 13 12 12 14 13 14 14 14 15 14 13 13 13 13 13 14 13 13 14 13 13 13 12 12 12 11 12 12 10 11 11 11 11 10 10 10 11 10 9 8 9 8 7 6 5 4 5 6 5 7 8 10 8 9 10 8 8 8 8 9 10 10 10 10
7 7 7 6 6 7 7 6 7 7 7 7 7 7 7 7 7 9 10 12 13 13 12 13 14 14 14 15 15 15 15 15 15 13 13 14 15 16 17 17 16 15 14 14 14 13 14 14 14 12 11 11 12 12 11 11 11 12 12 11 9 9 10 9 8 7 6 6 7 6 6 7 9 10 10 11 10 9 9 9 9 10 10 11 11
5 4 4 4 5 5 5 5 6 6 6 5 5 5 6 7 9 10 11 12 13 15 14 14 15 15 14 15 17 16 14 15 17 17 15 15 15 16 18 19 19 18 17 17 16 15 15 15 16 14 13 13 13 14 13 12 12 11 13 12 10 11 11 10 10 8 8 8 8 7 7 7 9 10 11 12 11 10 10 10 10 11 11 11 11
5 3 2 3 4 5 5 5 4 4 4 4 4 5 6 7 8 9 9 10 13 14 14 15 16 16 15 15 16 16 15 15 15 15 15 16 15 16 19 21 21 21 20 20 18 17 16 17 18 17 15 16 15 15 15 14 13 13 13 12 11 11 11 11 11 10 9 9 9 9 8 8 9 9 10 12 11 11 12 11 11 11 11 11 11
6 5 4 4 4 4 5 4 4 4 4 4 4 4 5 6 7 8 9 10 12 13 13 15 15 15 15 15 15 16 16 15 14 13 13 15 16 17 18 19 21 23 23 22 21 19 17 17 19 19 18 17 17 16 17 16 15 14 13 12 12 12 11 11 12 12 10 10 10 10 9 9 10 9 10 14 12 11 12 12 12 12 11 11 11
6 5 5 5 5 4 4 4 3 3 2 4 4 4 5 6 7 8 10 11 12 13 13 14 14 15 14 14 16 17 16 16 16 16 15 15 16 16 18 19 20 23 25 25 24 22 19 18 19 21 21 19 18 18 18 17 16 16 15 14 13 13 12 12 13 14 12 11 11 10 9 10 10 10 11 14 13 12 13 13 13 13 12 11 11
5 4 4 4 4 3 3 3 2 1 2 4 4 5 6 7 7 8 10 12 12 13 13 13 14 15 15 15 16 16 16 16 17 18 17 17 17 17 20 22 21 21 24 25 25 25 23 21 20 21 22 21 20 20 20 18 17 17 16 16 15 14 14 13 13 14 13 12 12 11 10 10 11 11 12 14 14 14 14 14 14 13 12 12 11
5 3 3 3 2 2 2 2 1 2 3 4 5 5 7 7 8 9 9 11 12 13 13 13 14 14 14 14 15 15 16 17 18 19 19 20 21 21 20 20 19 19 21 23 25 25 24 23 21 21 22 23 23 23 21 19 18 18 17 18 16 14 15 14 13 14 14 14 14 12 12 12 11 12 12 14 15 15 15 15 14 14 14 13 12
4 2 2 1 0 1 1 0 2 3 4 4 5 6 7 8 9 10 10 11 12 13 14 13 13 14 14 14 14 16 17 18 19 19 19 19 21 21 20 19 20 20 20 22 23 23 23 23 22 21 22 24 25 25 23 20 19 18 18 18 17 15 15 14 13 14 15 14 15 14 13 13 12 12 12 13 14 14 16 16 15 15 15 14 14
3 2 1 1 1 2 2 3 3 4 5 6 7 7 8 9 10 11 11 11 11 13 14 13 14 15 15 15 16 17 17 18 18 18 18 20 20 21 22 21 19 19 20 20 20 19 21 23 23 22 22 24 25 27 26 22 20 20 19 18 17 16 17 15 13 15 16 16 16 15 15 15 14 13 12 13 13 13 16 18 16 16 15 15 14
2 2 3 3 3 4 4 5 6 6 7 7 8 8 9 10 10 11 12 12 12 12 12 13 15 15 15 16 16 16 18 19 18 17 19 20 21 21 20 19 17 18 18 17 17 17 20 23 23 22 22 24 25 27 28 26 23 21 20 20 18 18 18 17 15 15 17 17 17 16 16 16 15 14 13 13 13 13 16 18 17 17 16 16 15
7 6 7 7 6 7 7 7 8 7 8 8 8 8 9 10 11 12 11 12 13 12 12 13 14 13 13 15 16 16 16 16 16 16 17 18 19 19 19 18 18 18 17 16 15 13 17 21 22 21 21 23 26 27 28 28 27 24 22 21 20 20 20 19 17 17 18 18 18 18 18 18 17 16 14 14 13 13 17 18 17 18 17 16 16
10 9 9 9 9 9 9 9 9 9 9 9 9 9 9 11 11 12 12 12 13 12 12 12 10 11 11 11 13 14 12 10 9 10 13 16 17 18 20 19 19 20 19 18 15 12 14 18 19 19 21 24 25 24 24 27 29 28 25 23 22 21 21 21 19 18 19 19 20 20 19 19 18 17 16 15 15 15 18 18 18 18 17 16 16
11 10 10 10 10 10 10 10 10 10 10 10 10 11 12 13 12 13 13 13 12 12 12 10 10 13 11 7 5 7 7 3 4 10 14 14 14 15 17 18 19 20 19 18 17 15 16 18 18 19 22 24 24 22 21 25 28 28 27 26 25 24 22 22 21 20 20 20 21 21 21 21 20 19 17 17 16 16 18 19 19 18 18 17 17
11 10 10 11 10 10 10 10 11 10 11 12 12 12 13 14 14 15 15 14 14 14 13 11 11 10 7 5 4 4 3 2 10 17 14 10 12 15 15 17 19 19 18 18 17 15 16 19 19 18 20 22 23 22 21 23 25 26 28 28 28 28 26 24 23 22 21 21 22 22 22 22 21 20 19 18 18 18 18 19 19 19 19 18 18
11 10 10 11 11 10 10 10 11 11 11 12 12 12 13 14 15 16 16 16 15 16 15 14 13 10 6 4 4 2 2 6 11 12 11 12 15 16 15 15 16 17 18 18 18 17 17 19 20 20 20 20 21 23 23 24 25 25 27 29 29 29 29 27 25 24 24 23 23 24 24 24 23 22 21 20 20 20 19 19 20 20 20 19 19
11 11 10 10 11 11 10 11 11 11 12 13 13 13 14 14 16 16 17 17 17 16 16 18 17 13 10 8 6 6 7 8 6 5 11 16 14 14 15 15 15 15 16 17 18 18 19 20 21 21 22 22 22 24 25 25 26 26 27 28 28 27 27 28 28 26 26 25 25 26 26 25 26 25 23 23 23 22 21 21 20 20 20 20 21
11 11 11 11 11 11 10 10 11 11 12 12 13 14 14 14 15 15 16 17 17 17 16 19 19 16 17 16 13 12 12 10 6 4 8 11 13 15 15 14 14 15 15 16 17 18 20 21 21 21 21 23 24 24 25 26 27 28 28 28 27 25 24 26 30 29 27 26 27 28 28 27 28 28 26 25 25 25 23 22 21 20 21 21 23
11 12 11 11 12 12 10 10 10 11 11 11 12 14 14 13 14 14 15 16 16 16 16 17 17 17 20 21 19 18 16 13 10 7 5 6 11 14 15 16 17 17 17 17 18 19 20 21 20 20 20 22 23 25 26 26 28 29 29 29 28 28 25 26 30 32 30 28 27 30 30 29 29 29 28 27 27 27 25 24 23 22 22 23 25
10 11 11 11 11 11 11 10 10 11 11 11 12 13 14 13 13 14 16 15 14 15 16 17 16 17 19 20 20 20 19 18 16 13 9 7 7 8 13 18 17 17 17 18 19 19 19 20 21 20 20 20 22 24 26 27 28 29 29 29 30 30 28 27 29 31 32 30 29 30 31 31 31 30 29 28 28 29 28 26 25 25 24 24 26
10 10 10 10 10 10 11 11 11 11 12 12 12 13 13 13 14 14 15 16 15 15 15 17 17 17 18 18 18 18 18 16 17 19 15 10 8 8 12 15 13 16 19 18 17 17 17 18 20 22 22 22 22 24 26 27 28 29 30 30 31 32 32 30 29 30 31 31 31 32 32 33 34 31 29 28 29 29 30 29 27 27 26 25 26
9 10 10 10 10 10 11 10 11 12 11 11 13 13 12 13 14 14 14 16 16 15 15 18 18 18 17 17 17 17 16 14 16 18 15 11 10 8 12 16 15 17 21 22 21 17 16 17 19 21 23 24 23 23 24 26 27 28 30 31 32 33 33 32 31 31 32 31 32 34 34 33 33 32 30 29 29 30 31 31 29 28 28 27 27
8 10 10 10 10 10 11 10 11 12 12 12 13 13 13 14 14 14 15 15 16 16 16 18 19 19 18 18 18 18 17 16 17 19 17 15 13 8 11 17 16 17 22 24 24 20 19 18 19 20 21 22 22 22 23 24 26 27 29 32 33 34 34 35 34 33 32 32 32 33 35 35 33 32 33 32 30 30 31 31 31 30 29 29 28
8 9 10 9 10 10 10 11 11 12 13 13 13 14 14 14 14 15 15 15 16 16 15 16 17 18 18 17 17 17 17 18 19 20 19 20 17 11 13 17 13 15 22 23 21 20 21 20 18 16 18 20 21 22 22 25 28 27 26 29 33 35 36 37 36 35 34 35 34 33 35 38 37 33 32 33 32 32 33 32 32 31 30 30 30
8 8 8 8 9 10 10 11 12 12 13 13 13 14 14 13 13 15 15 15 16 15 14 15 15 16 17 16 17 16 16 18 19 19 19 19 18 14 14 16 14 14 17 19 20 18 18 21 22 21 17 17 20 23 23 25 28 28 25 25 29 33 36 37 37 37 37 37 36 35 35 38 39 36 34 35 34 34 35 35 34 33 32 31 31
7 8 8 8 9 10 11 12 12 13 13 14 14 14 14 14 14 15 15 16 16 15 15 15 15 16 17 17 17 16 15 16 17 18 18 17 18 18 16 12 11 11 11 14 17 16 18 21 22 24 22 19 17 17 20 23 27 28 25 23 26 30 34 36 37 37 38 38 37 37 36 36 39 39 37 37 38 37 36 37 36 35 34 32 32
7 8 8 9 10 10 11 12 13 13 14 14 15 15 14 14 15 16 16 17 16 16 16 16 16 16 16 17 17 16 16 18 18 19 20 20 19 20 19 15 11 8 8 10 11 13 19 22 22 23 24 25 25 23 22 21 23 26 26 23 23 27 31 35 38 38 38 39 38 38 38 37 39 42 41 40 41 41 38 38 38 37 36 35 34
8 8 8 9 10 11 11 12 13 13 14 14 14 15 14 14 15 16 17 17 16 16 17 16 16 16 17 18 17 18 20 20 20 20 21 22 21 21 21 20 16 10 7 8 8 11 18 22 22 23 25 28 30 31 29 26 25 23 23 23 23 25 28 32 36 38 39 40 40 40 40 39 38 42 44 43 42 41 40 39 40 39 38 37 36
8 8 9 10 11 11 12 13 13 14 14 14 14 15 15 15 15 16 17 17 16 16 17 17 17 18 19 20 19 20 21 21 20 21 21 21 22 21 21 20 19 15 11 9 9 12 19 22 23 26 28 30 31 32 32 30 29 26 22 24 25 26 28 30 33 36 38 40 41 41 41 41 40 42 45 44 43 42 42 42 41 41 40 39 38
9 9 10 11 11 12 13 14 14 15 15 15 15 15 15 15 15 16 16 16 16 16 17 17 17 18 19 20 19 20 21 21 20 20 20 20 21 20 20 19 20 18 17 13 9 13 20 22 25 29 30 30 31 32 34 32 30 29 27 27 27 27 28 30 32 34 37 39 40 41 42 43 43 43 44 45 45 43 43 45 44 43 42 41 40
10 10 11 12 12 13 14 15 16 16 16 16 15 15 15 16 15 15 16 16 16 17 18 18 18 18 19 19 19 20 21 21 20 20 20 20 21 20 20 20 20 19 19 16 11 15 23 23 25 30 31 31 32 32 33 34 31 29 28 29 28 27 28 31 32 33 35 38 40 41 42 44 45 45 44 46 47 45 45 47 47 45 45 44 43
11 11 12 13 14 14 15 16 17 17 17 16 16 15 15 16 15 16 17 17 18 18 19 19 19 20 20 19 19 20 21 21 20 20 20 20 21 21 20 20 20 20 20 19 15 16 23 25 24 28 31 32 31 30 30 32 32 30 29 29 29 27 27 30 33 34 35 36 39 41 42 43 46 48 47 46 48 48 47 48 49 48 47 47 45
12 12 13 14 14 15 16 17 17 17 17 16 16 16 16 16 16 17 18 18 19 20 20 20 20 20 20 20 20 20 21 21 21 20 20 21 22 22 22 21 21 21 20 20 20 18 22 26 26 26 29 30 30 30 30 32 33 33 32 31 30 29 28 29 32 35 35 35 37 40 42 43 46 49 50 49 49 49 49 49 50 50 49 48 48
13 14 14 15 15 16 17 17 18 18 17 16 16 15 16 17 17 17 18 18 19 20 20 20 20 20 20 20 20 21 21 21 21 21 21 22 23 23 24 22 22 22 21 20 21 21 22 26 27 26 27 29 30 31 31 32 33 35 34 33 31 31 32 31 31 33 36 36 36 38 41 43 45 48 52 52 50 51 52 51 51 52 52 51 49
13 14 15 16 17 17 18 18 18 18 17 16 16 15 16 17 17 18 18 18 19 19 19 20 20 20 20 20 20 21 22 21 22 22 22 23 24 24 24 24 23 23 23 21 22 22 22 24 27 27 26 27 29 31 31 31 32 33 34 32 31 31 32 31 31 33 35 36 36 37 39 42 44 46 50 53 52 52 53 53 52 53 53 53 51
13 14 15 16 17 18 18 18 18 18 18 16 15 15 15 16 17 18 18 18 19 19 19 20 20 21 21 20 20 22 22 22 22 22 23 24 25 24 24 24 23 23 24 24 23 23 23 24 26 27 27 26 27 28 29 30 31 32 33 33 33 32 31 31 32 33 34 35 36 37 38 40 42 44 48 52 54 53 53 55 55 54 55 55 54
14 15 15 16 17 18 19 19 18 18 19 18 16 15 15 16 16 17 18 18 18 18 19 21 21 21 21 20 20 21 22 22 23 24 25 26 25 25 25 23 23 24 25 25 24 23 23 24 24 26 27 25 25 27 29 29 30 31 32 34 34 32 30 29 31 33 34 34 36 38 39 40 42 43 46 50 53 56 56 57 57 56 57 58 57
14 15 15 16 16 17 18 20 20 19 20 21 19 18 17 16 15 16 17 17 18 18 19 20 20 21 21 20 20 22 22 23 26 26 26 27 26 25 24 23 24 25 25 24 24 23 23 23 24 25 25 25 25 27 29 31 30 28 27 28 31 35 36 33 32 33 34 33 33 36 39 40 41 42 44 47 51 56 58 59 58 57 57 58 58
14 14 15 15 16 16 17 19 20 19 19 20 21 20 18 16 15 15 16 17 18 18 18 19 19 20 20 20 20 22 23 25 28 28 28 28 26 24 24 27 29 29 27 25 23 22 23 23 24 24 25 26 26 26 27 28 27 26 26 26 28 33 36 35 35 34 31 31 32 35 38 39 39 41 43 45 50 54 57 58 57 57 57 58 59
14 15 15 15 16 17 17 18 19 18 17 18 19 18 17 17 16 15 15 16 17 17 17 17 18 19 20 20 20 21 23 27 30 31 29 26 23 23 26 30 33 33 32 27 22 21 22 22 24 25 24 25 25 25 25 25 25 27 29 30 28 29 33 37 40 37 30 30 33 33 36 38 38 41 43 46 49 52 54 55 55 56 56 57 59
14 14 15 16 17 17 17 19 19 18 16 16 16 15 15 16 15 15 14 15 15 15 15 16 17 19 20 20 19 19 23 29 33 34 31 25 23 24 27 29 30 31 32 27 20 20 21 21 23 25 23 22 25 26 26 26 28 29 29 29 29 31 32 31 35 37 32 27 30 31 32 35 37 38 41 44 47 50 52 54 56 57 58 58 59
13 13 14 15 17 17 18 20 21 18 15 15 14 14 14 14 13 13 13 13 13 14 14 15 18 20 20 19 18 19 24 30 35 36 33 28 27 28 29 28 26 28 30 26 21 22 23 22 24 25 22 23 26 27 27 27 28 29 29 29 28 29 27 20 21 29 31 25 24 28 29 31 34 36 38 41 44 47 51 55 57 59 60 60 60
13 13 13 15 16 17 19 22 22 18 14 13 13 14 14 13 12 12 12 12 13 13 13 14 18 21 21 19 18 19 23 28 34 36 33 30 30 30 30 28 27 27 28 27 25 26 26 24 25 25 24 25 29 28 27 28 29 32 32 30 28 25 25 22 19 25 33 31 26 26 28 28 31 33 35 37 41 45 49 54 57 59 59 60 60
13 13 13 14 15 16 18 22 23 20 14 11 11 12 12 12 12 12 11 11 12 14 13 13 17 21 22 20 18 20 23 26 32 36 32 30 30 31 30 29 29 28 27 28 28 29 29 27 26 28 28 30 32 32 31 32 34 36 34 31 30 26 25 26 26 32 41 38 30 25 25 26 28 30 33 35 38 42 46 49 54 58 59 60 60
12 12 13 14 15 15 16 19 22 22 18 11 8 9 9 9 10 11 11 10 12 15 13 13 16 19 21 21 19 20 23 26 31 34 32 29 29 30 30 29 28 28 29 30 31 32 33 33 30 32 33 34 34 35 36 35 35 37 35 33 33 31 30 32 34 40 45 40 32 26 20 21 25 27 30 33 34 37 41 45 50 55 57 59 60
12 11 12 13 14 14 16 18 20 22 20 15 10 8 8 9 8 10 12 12 13 14 14 13 15 16 20 22 20 19 22 25 28 31 31 29 27 27 29 28 27 29 31 32 33 33 35 36 34 34 34 34 35 36 37 35 34 37 37 32 30 30 32 35 37 38 40 37 31 24 17 18 22 25 28 31 31 33 37 40 44 49 54 57 59
11 11 11 12 13 13 14 16 20 22 21 18 13 10 9 11 11 11 12 13 14 15 14 13 13 14 17 21 22 22 23 26 27 28 29 30 27 25 26 27 28 29 32 35 36 36 36 36 35 35 34 35 37 37 36 36 35 38 37 30 25 25 26 27 27 28 30 31 28 24 21 18 19 24 25 26 26 28 32 36 39 43 48 53 56
11 11 12 12 12 13 12 13 18 21 22 20 17 13 11 12 15 15 13 13 14 15 14 13 12 12 15 19 23 25 26 27 27 27 28 29 29 26 25 28 30 29 30 35 38 39 38 37 37 37 36 38 40 40 38 38 38 38 36 30 25 25 22 15 13 17 23 24 21 21 22 17 17 22 21 20 23 25 26 29 33 37 41 45 50
12 12 13 13 13 13 12 11 14 19 21 21 19 18 15 13 15 17 14 13 14 15 14 14 13 13 15 18 22 26 28 28 27 28 28 29 30 29 27 29 31 30 31 32 35 39 42 41 41 41 40 40 42 42 41 40 39 38 37 32 27 26 22 13 11 16 18 14 14 10 12 15 16 19 16 12 12 12 13 16 21 26 32 38 42
11 11 12 13 13 13 13 12 12 14 18 20 21 21 20 17 16 17 16 14 15 15 14 13 14 15 15 17 21 26 29 28 27 28 28 29 31 31 28 28 30 33 34 31 31 38 43 42 42 42 42 42 42 42 42 41 40 39 38 35 30 28 25 19 18 15 8 9 24 24 8 12 16 18 14 8 4 3 5 7 8 11 18 26 35
Wind_Direction
167 187 206 191 194 201 215 206 206 237 224 227 244 249 258 254 261 262 265 280 279 281 279 273 272 265 264 262 260 266 265 260 258 263 270 277 277 266 259 260 266 276 279 281 281 275 257 255 256 229 230 249 260 271 251 229 230 231 236 245 240 248 257 240 221 233 249 245 233 208 200 193 190 188 178 173 173 167 158 152 147 142 139 137 136
183 200 215 196 196 210 217 212 213 239 248 260 259 260 261 256 269 274 278 285 282 287 292 285 279 274 271 264 255 256 258 262 260 257 257 267 279 275 266 260 258 264 268 274 277 277 265 255 258 242 227 237 250 259 249 233 235 240 243 243 239 243 246 233 223 233 237 235 228 213 211 195 183 194 196 180 175 176 168 159 154 149 145 143 141
187 201 211 195 204 210 211 218 221 239 258 265 265 265 265 268 278 286 287 285 284 287 293 295 289 282 282 279 273 262 251 255 258 258 254 254 265 271 269 265 262 261 260 264 268 271 268 256 255 249 231 233 242 247 250 237 232 242 243 239 241 241 241 235 228 230 225 227 226 212 214 202 184 193 200 183 174 181 176 166 163 157 151 149 147
178 197 219 198 208 214 217 225 227 249 268 261 264 273 277 285 286 287 287 286 289 289 289 291 290 288 288 287 289 286 271 261 255 255 256 251 255 261 264 264 263 263 261 263 264 264 264 256 254 250 232 233 241 242 246 239 229 238 239 236 238 239 245 240 230 231 223 220 223 215 215 211 197 198 200 185 177 184 181 173 171 165 159 155 153
169 171 219 211 207 212 218 224 228 250 266 263 271 278 281 285 284 292 295 291 293 295 293 290 288 287 288 288 289 293 294 285 270 263 254 245 247 253 262 266 264 264 263 266 266 262 261 257 253 251 237 233 239 239 242 240 233 234 233 232 235 237 245 239 228 232 226 219 220 217 218 215 208 207 199 185 179 186 184 179 176 168 164 161 159
167 167 180 198 203 211 215 219 230 243 257 270 276 278 285 291 293 301 302 299 299 300 297 294 292 289 289 290 287 287 293 293 287 281 262 250 254 255 259 265 266 267 264 265 267 263 263 261 254 251 245 235 234 238 238 236 235 233 228 227 231 233 239 236 228 230 226 220 220 216 218 218 212 209 196 186 183 186 185 182 179 171 168 166 164
175 178 178 193 203 208 210 213 231 252 265 272 283 299 307 308 309 309 307 307 306 303 300 299 297 293 291 290 288 287 287 287 287 286 276 268 266 259 257 261 265 270 268 265 266 265 265 264 259 252 248 240 235 238 236 234 235 233 230 228 228 229 233 235 231 229 226 223 222 215 214 217 213 208 195 188 188 189 187 184 181 178 175 172 170
184 189 187 200 212 201 206 222 243 283 288 300 317 325 318 314 316 313 310 309 306 305 304 303 300 300 299 296 295 293 289 287 286 284 280 276 275 273 272 268 266 270 269 268 267 267 267 265 261 254 250 242 236 236 235 236 236 234 234 230 226 228 231 237 237 228 224 225 224 214 208 212 211 208 201 194 193 192 192 189 184 185 183 178 175
178 205 204 194 223 190 189 226 310 321 308 324 331 327 320 320 319 316 313 310 309 309 309 310 308 305 303 299 297 293 287 283 281 281 279 279 281 283 278 272 273 271 268 271 271 269 268 265 260 255 252 246 237 235 234 237 238 234 233 231 230 232 230 237 242 229 221 225 225 214 204 208 209 207 206 205 201 197 197 195 189 188 188 184 179
162 196 212 124 343 156 160 309 351 324 323 339 338 333 327 325 324 322 320 315 312 311 311 311 309 306 302 297 294 291 286 284 284 283 279 279 282 282 277 275 279 277 272 272 269 266 266 265 261 257 253 248 241 236 234 235 237 236 232 233 235 232 227 230 238 231 221 224 227 218 206 206 209 207 207 210 208 200 198 199 194 191 191 188 184
141 155 124 76 14 64 48 3 360 337 344 354 352 346 334 332 331 327 324 320 314 311 311 309 309 309 303 297 296 293 288 285 285 281 276 275 277 280 283 283 280 276 274 267 261 266 268 262 258 256 251 246 242 239 237 235 234 234 232 230 229 226 225 226 232 233 225 223 226 222 211 208 208 208 209 210 208 201 195 196 196 193 193 190 187
83 82 65 50 19 33 31 12 10 357 353 355 351 347 341 340 335 331 330 326 322 318 317 317 314 311 307 304 300 296 292 286 283 280 274 275 278 280 283 285 281 277 274 265 261 270 271 261 254 253 250 244 240 238 238 237 234 231 230 230 229 228 227 224 229 233 227 223 224 223 216 212 209 207 211 211 207 201 190 190 193 193 193 191 190
53 54 53 47 36 28 24 19 16 6 1 358 354 351 349 346 340 339 337 329 327 326 325 325 319 315 318 316 310 307 301 289 285 281 276 281 284 281 280 280 277 276 277 273 268 267 268 265 256 251 247 241 239 239 238 238 237 234 230 229 230 233 230 224 227 232 229 224 223 225 221 215 211 206 209 210 207 201 189 187 191 192 193 191 191
48 46 42 42 41 33 29 24 20 15 11 7 4 2 359 356 350 346 342 335 331 329 332 333 328 325 323 316 315 322 316 290 283 283 283 293 291 283 283 281 276 276 278 278 272 265 266 264 253 247 244 233 231 237 239 239 239 237 232 226 226 231 231 226 226 231 232 225 222 227 224 218 213 207 208 208 206 201 192 190 192 194 194 191 192
46 42 38 40 38 33 32 26 22 21 17 13 12 13 8 4 360 355 349 343 338 337 341 339 331 328 321 306 316 329 318 293 327 317 301 297 296 295 291 281 275 276 277 275 272 270 269 267 261 253 246 234 227 230 236 238 239 238 233 228 225 227 229 228 226 228 231 226 223 226 226 220 214 209 207 207 206 201 197 196 195 195 195 193 195
44 40 41 43 39 33 31 28 27 27 23 17 15 12 8 7 6 3 358 352 345 340 341 341 335 334 329 313 308 305 301 352 343 326 311 294 295 302 295 285 282 279 276 273 270 270 268 269 267 257 249 244 237 235 234 235 238 239 236 232 230 229 228 228 227 228 228 226 224 225 226 222 215 211 209 206 205 201 199 200 198 198 196 195 196
44 41 42 40 38 35 32 30 28 31 27 19 16 13 9 11 8 5 2 358 351 340 340 346 342 335 328 316 306 296 326 343 334 321 315 308 301 299 292 289 291 287 283 278 273 269 264 267 268 260 256 254 250 245 239 235 237 239 238 236 234 233 230 227 227 228 226 225 225 223 224 224 216 211 211 208 206 203 202 201 199 200 197 196 196
49 45 43 37 36 36 37 36 31 31 26 19 21 18 11 10 7 4 3 359 355 347 343 346 346 346 343 330 302 279 287 314 327 312 310 309 305 303 294 291 291 288 287 282 277 274 268 268 271 270 265 259 257 252 246 243 240 238 239 238 236 235 232 227 224 226 226 224 225 224 222 222 218 211 211 211 207 205 204 202 201 200 196 195 194
53 48 44 37 32 31 31 35 34 29 20 16 20 16 11 8 5 5 3 0 0 356 350 349 348 350 350 345 330 309 293 292 292 295 311 309 310 312 303 297 291 283 283 279 275 276 274 272 271 273 269 263 260 255 249 247 241 236 236 237 237 234 230 228 224 223 224 224 225 226 221 219 218 212 211 211 209 207 205 203 203 199 195 193 191
53 47 42 37 34 32 26 27 31 25 18 15 15 14 13 9 7 7 4 2 3 359 356 355 350 345 346 347 343 337 327 316 303 292 294 300 310 315 313 311 300 284 280 277 275 277 278 275 269 265 264 263 261 255 249 244 239 236 234 234 235 234 230 230 227 224 225 224 224 228 224 219 218 213 210 209 208 209 207 204 203 199 196 193 190
51 44 38 35 34 35 32 28 25 24 20 17 16 15 13 11 11 10 6 5 5 1 359 358 354 349 347 345 342 341 341 339 336 332 328 314 311 318 322 320 309 295 290 282 277 275 276 276 271 265 260 259 260 256 251 245 241 240 240 236 231 232 234 232 230 228 228 225 221 227 227 221 219 214 209 208 207 209 208 205 204 200 198 196 193
50 43 38 37 37 36 34 30 26 25 21 19 18 14 12 15 14 9 10 11 7 5 5 1 357 352 350 348 344 343 343 342 345 345 340 330 324 322 322 324 319 315 315 307 292 277 271 271 268 267 264 262 261 255 251 250 249 247 246 241 233 235 238 234 231 231 231 226 220 224 227 225 223 216 209 208 206 208 209 207 205 203 200 198 197
51 47 42 41 41 38 35 32 30 27 23 23 19 13 17 20 15 13 14 14 10 11 10 4 1 357 356 354 349 348 348 342 339 338 334 328 326 321 321 326 326 323 325 326 319 301 282 271 262 261 265 266 262 256 254 254 254 252 247 243 239 237 238 235 234 232 232 229 223 223 226 228 228 221 212 210 207 207 209 208 206 205 203 201 200
57 49 45 44 44 40 38 35 32 28 24 27 21 18 26 23 17 18 16 12 12 14 11 6 5 4 360 357 354 351 346 338 334 333 331 331 329 320 323 330 327 321 323 325 323 316 305 290 271 259 258 262 260 256 256 253 252 252 246 244 241 236 237 239 238 234 232 231 228 226 226 228 231 226 216 211 208 207 209 210 208 206 204 203 202
58 52 46 45 46 41 39 36 34 30 27 29 26 23 29 27 21 22 20 18 16 15 12 8 7 5 1 357 354 350 344 342 344 343 343 343 338 331 327 327 320 313 316 317 316 318 317 313 304 283 262 256 253 248 248 246 245 249 248 246 242 237 238 240 238 234 232 232 231 228 228 229 230 230 222 214 210 209 209 210 209 206 205 205 204
60 57 50 49 49 43 40 37 35 33 30 30 29 26 30 30 26 24 22 20 17 16 14 10 10 7 3 359 354 349 346 348 352 349 347 345 339 332 326 321 315 311 310 313 316 316 318 320 323 320 301 276 258 247 248 249 243 247 251 250 246 241 238 238 236 234 233 232 231 229 229 230 230 230 226 218 213 212 209 209 210 207 205 206 206
66 60 55 55 53 45 41 40 37 36 34 34 33 31 32 31 28 27 24 20 16 15 14 11 11 9 5 2 354 348 350 354 354 350 345 342 336 331 330 325 319 318 315 317 318 314 318 322 321 322 324 319 299 275 272 263 245 244 251 252 250 246 241 237 235 235 235 235 235 232 230 231 231 230 228 222 215 213 210 209 209 207 204 206 208
73 63 56 53 54 51 44 41 40 38 37 37 35 33 34 32 30 28 24 19 16 15 14 10 10 9 5 2 356 353 1 4 359 354 351 348 346 343 342 339 331 327 323 322 320 314 320 323 316 313 320 325 324 321 314 291 261 250 249 252 253 250 246 242 239 238 239 240 240 236 232 232 233 231 230 227 220 214 210 210 209 208 205 206 208
75 66 59 54 53 53 47 43 42 39 39 40 37 36 36 35 32 28 24 20 18 18 14 9 9 9 6 5 4 5 9 7 0 358 356 353 354 352 349 344 338 332 322 322 322 315 319 322 317 313 317 319 318 320 320 313 299 278 259 257 259 256 252 248 244 241 241 242 243 240 235 232 233 232 230 229 226 218 212 212 211 208 206 207 208
76 66 63 59 54 53 51 47 44 41 42 42 40 39 38 38 36 31 27 23 21 20 15 11 11 11 9 9 11 10 7 4 0 359 357 357 355 350 347 343 338 333 325 319 313 311 318 321 317 315 317 317 316 316 314 311 309 301 283 270 264 261 259 254 250 247 244 244 245 243 240 235 232 232 230 229 228 222 215 214 213 209 207 208 209
76 69 65 61 58 56 52 49 47 44 43 43 42 40 38 40 37 32 28 23 22 22 18 15 14 12 11 10 12 12 6 2 1 358 357 357 354 346 342 339 336 332 325 318 308 309 315 316 312 311 312 313 313 313 310 307 305 301 294 283 271 266 264 258 253 252 248 247 246 246 244 240 234 231 230 229 228 224 218 215 214 211 208 208 209
76 71 66 63 60 57 53 50 48 44 42 42 42 41 39 40 36 32 28 24 23 23 19 18 18 16 13 10 12 12 8 3 0 358 356 354 350 345 341 337 333 331 326 319 307 305 308 309 309 308 310 312 312 310 310 309 308 303 297 290 281 270 264 261 256 254 253 251 249 247 245 242 237 231 228 228 227 225 221 217 215 212 210 208 209
77 73 68 65 61 57 53 49 46 43 42 41 42 42 41 40 36 33 30 26 26 26 22 20 20 18 14 12 12 11 7 4 0 357 354 351 348 344 341 337 332 330 327 319 311 306 306 309 310 308 309 313 312 311 311 310 309 307 302 296 285 269 260 261 259 257 256 254 251 250 247 244 240 234 229 227 226 225 223 220 216 214 211 209 209
79 75 71 66 61 57 53 48 45 43 41 42 45 44 41 39 38 35 32 30 29 28 25 22 21 18 15 14 13 10 6 3 0 357 354 350 348 343 340 337 332 329 328 321 315 311 309 311 312 311 312 314 312 311 312 310 308 306 302 296 286 272 264 262 259 258 258 256 254 252 250 246 243 238 233 227 225 224 224 222 218 216 213 211 210
81 76 71 67 62 58 53 47 43 40 41 46 48 44 41 40 39 36 34 32 32 30 28 25 21 19 17 15 12 8 5 2 360 357 353 349 346 343 339 337 332 329 328 325 320 314 310 311 313 314 314 314 312 311 312 311 308 306 303 296 288 278 270 264 259 258 257 256 255 253 252 249 245 241 236 230 225 223 223 223 220 217 215 213 211
82 77 72 66 62 57 52 46 42 39 42 49 51 47 44 43 41 38 36 35 35 33 29 27 24 20 18 15 12 8 4 1 358 354 351 347 343 341 338 335 333 330 328 326 322 317 312 311 312 314 313 312 311 311 313 312 310 310 306 301 297 289 276 265 260 260 258 256 256 254 252 251 247 243 238 233 229 224 222 223 221 219 217 215 214
85 80 73 66 62 57 51 46 43 41 44 53 58 51 43 42 44 41 38 38 36 34 32 29 25 22 19 15 12 8 4 360 356 351 347 344 340 337 336 334 334 332 328 325 322 319 315 312 312 313 313 312 311 311 313 314 314 313 311 308 306 300 288 275 265 260 258 257 255 253 252 251 249 245 241 236 231 226 223 222 221 219 218 217 215
87 81 75 69 64 58 51 48 47 47 48 53 58 56 50 50 50 44 41 41 38 35 34 31 26 22 19 15 11 7 5 360 354 348 345 342 338 335 335 334 332 331 328 326 325 320 316 314 313 313 313 314 315 314 314 314 314 312 311 311 310 309 306 296 280 266 258 255 253 251 251 249 247 246 243 238 233 227 223 221 221 220 218 217 216
89 83 77 71 66 60 52 48 51 55 55 53 56 60 59 57 53 46 43 43 40 38 36 31 26 22 17 14 11 9 6 360 352 347 344 342 338 335 333 329 326 324 321 324 328 326 322 322 318 316 316 317 316 315 314 314 313 309 309 313 314 314 315 312 301 280 260 251 252 251 250 249 248 247 244 241 236 228 221 219 219 219 219 218 217
89 83 79 74 68 63 54 49 53 60 60 56 56 58 56 52 50 47 46 45 41 39 36 30 24 21 16 14 13 10 5 359 352 347 346 345 341 336 335 334 330 326 321 320 325 330 329 327 324 320 319 318 316 316 316 318 317 313 314 314 310 310 312 312 308 294 268 252 252 251 249 248 247 246 244 241 238 230 221 217 217 219 220 220 219
89 85 81 75 70 65 58 52 54 61 62 57 53 52 50 50 50 50 49 48 43 40 37 30 24 21 16 14 14 10 4 359 355 353 352 353 350 343 341 342 337 333 329 323 323 332 334 329 326 323 319 317 318 319 320 319 317 314 313 312 307 308 311 308 304 301 286 263 252 248 247 245 241 241 240 237 235 230 221 216 217 219 220 222 222
90 87 82 77 71 66 61 55 54 61 64 60 57 54 52 51 52 54 53 49 46 43 37 32 27 21 17 15 15 10 5 2 2 4 5 4 3 357 351 348 342 340 339 334 330 339 339 333 329 326 320 318 319 318 317 314 312 311 310 310 308 307 309 307 301 302 300 275 251 243 246 245 239 237 234 231 231 227 220 217 217 218 220 221 224
92 89 83 78 72 66 62 57 55 59 63 64 65 62 60 57 53 58 57 49 47 45 39 35 30 23 17 16 18 13 9 6 7 10 12 9 7 3 358 356 353 351 351 348 345 347 342 332 329 328 323 319 319 318 316 313 312 311 307 304 303 301 301 302 299 300 302 292 263 247 245 246 239 232 230 229 227 223 219 218 218 218 219 219 221
92 89 84 81 75 67 62 57 54 57 62 69 68 64 66 61 54 59 59 51 46 42 41 41 34 26 20 18 20 16 11 9 9 11 11 10 8 5 1 2 3 2 0 357 352 347 340 332 330 330 324 319 320 319 317 317 315 312 307 299 293 291 290 288 290 289 291 295 286 259 243 243 238 228 227 228 226 224 223 221 219 218 218 219 219
91 87 85 84 77 69 62 56 53 53 57 68 67 64 66 61 57 61 58 51 47 39 41 45 34 28 26 23 19 14 11 10 10 11 11 11 10 7 4 6 8 6 3 359 356 353 348 341 334 331 329 326 324 321 319 320 318 316 313 303 294 290 284 282 283 282 284 290 291 272 245 235 233 225 224 227 225 224 225 224 221 220 219 219 219
91 87 87 85 79 72 64 56 52 49 50 59 66 61 56 52 58 62 54 50 48 40 40 44 35 31 31 26 18 12 9 9 9 10 12 11 9 8 8 9 8 6 4 0 359 358 355 351 343 336 337 335 330 326 325 324 323 321 318 309 299 294 287 283 280 279 282 283 280 274 257 236 226 220 222 228 226 225 227 228 226 222 220 219 219
93 90 90 88 83 76 65 56 52 48 47 53 63 59 48 41 49 58 53 47 45 41 41 41 36 35 33 26 19 10 5 4 5 7 9 9 7 6 9 11 8 6 6 4 1 358 355 354 349 343 342 341 338 336 336 334 331 330 326 316 306 299 292 287 282 278 280 280 270 260 255 243 226 215 222 228 225 224 228 230 230 227 223 220 220
96 94 91 89 86 80 67 56 52 51 49 51 56 58 49 40 42 51 52 47 42 42 41 33 28 33 32 24 16 9 3 1 1 2 4 5 4 359 360 2 1 1 5 5 4 1 356 354 353 349 348 349 349 350 349 345 341 340 337 332 325 316 303 291 284 279 279 281 271 247 238 241 225 213 221 226 222 223 227 229 231 232 228 223 222
100 97 92 88 86 82 75 60 52 52 52 50 52 54 50 46 47 47 45 41 39 37 37 33 25 23 20 14 10 8 4 1 0 360 359 359 359 356 351 351 351 353 358 2 3 2 358 356 356 355 354 355 357 358 358 355 351 349 347 342 340 335 321 296 289 293 285 283 276 245 228 225 217 212 213 214 215 220 225 228 231 234 233 229 226
111 105 95 90 85 81 80 72 57 52 51 50 50 50 49 50 51 46 39 34 32 27 28 33 28 17 9 3 4 7 5 2 1 0 359 356 354 353 349 347 346 346 348 354 359 0 360 359 359 360 359 360 0 1 2 0 358 358 354 347 348 349 338 321 317 312 295 302 335 313 234 213 209 206 194 184 195 203 206 215 223 230 234 233 231
121 115 105 97 92 85 82 78 67 54 50 49 48 47 45 45 49 47 40 32 26 20 20 26 23 16 9 1 0 5 6 4 1 0 1 358 354 352 349 346 346 345 345 346 353 358 360 359 359 360 0 2 2 2 3 2 2 3 0 356 359 1 354 345 340 333 309 338 357 353 307 212 198 191 180 160 136 120 137 165 189 210 225 230 231